CW1509 Weather Reports


Display with metric or nautical units.
time (UTC)temp
F
wind
direction
speed
MPH
gust
MPH
rain 1hr
in
rain 24hr
in
rain mn
in
humidity
%
barometer
mb
20240530023407 55 360 0.0 0.0 0.00 0.26 0.26 63 1021.5
20240530022905 55 360 0.0 0.0 0.00 0.26 0.26 61 1021.4
20240530022403 55 360 0.0 0.0 0.00 0.26 0.26 61 1021.4
20240530021902 56 360 0.0 0.0 0.00 0.26 0.26 60 1021.3
20240530021400 56 360 0.0 0.0 0.00 0.26 0.26 59 1021.3
20240530020859 56 360 0.0 0.0 0.00 0.26 0.26 60 1021.2
20240530020359 57 360 0.0 0.0 0.00 0.26 0.26 58 1021.1
20240530015857 57 360 0.0 0.0 0.00 0.26 0.26 58 1021.1
20240530015357 57 360 0.0 0.0 0.00 0.26 0.26 58 1021.0
20240530014856 57 360 0.0 0.0 0.00 0.26 0.26 58 1021.0
20240530014354 58 360 0.0 0.0 0.00 0.26 0.26 57 1020.9
20240530013853 58 360 0.0 0.0 0.00 0.26 0.26 57 1021.0
20240530013352 58 360 0.0 0.0 0.00 0.26 0.26 57 1021.0
20240530012851 58 360 0.0 0.0 0.00 0.26 0.26 54 1020.9
20240530012409 58 360 0.0 0.0 0.00 0.26 0.26 55 1020.9
20240530011911 58 360 0.0 0.0 0.00 0.26 0.26 55 1021.0
20240530011431 59 360 0.0 0.0 0.00 0.26 0.26 54 1021.0
20240530010910 59 360 0.0 0.0 0.00 0.26 0.26 56 1021.0
20240530010351 59 360 0.0 0.0 0.00 0.26 0.26 56 1021.0
20240530005852 59 360 0.0 0.0 0.00 0.26 0.26 55 1021.0
20240530005352 59 360 0.0 0.0 0.00 0.26 0.26 56 1021.1
20240530004853 59 360 0.0 0.0 0.00 0.26 0.26 55 1021.0
20240530004413 59 360 0.0 0.0 0.00 0.26 0.26 56 1021.0
20240530003914 60 344 0.0 1.0 0.00 0.26 0.26 56 1021.0
20240530003414 60 345 0.0 2.0 0.00 0.26 0.26 56 1021.1
20240530002913 60 360 0.0 2.0 0.00 0.26 0.26 56 1021.0
20240530002415 60 360 0.0 2.0 0.00 0.26 0.26 56 1021.0
20240530001915 60 360 0.0 2.0 0.00 0.26 0.26 57 1021.0
20240530001416 61 360 0.0 2.0 0.00 0.26 0.26 58 1021.0
20240530000856 61 360 1.0 2.0 0.00 0.26 0.26 56 1020.9
20240530000357 61 308 0.0 2.0 0.00 0.26 0.26 57 1020.9
20240529235856 61 360 0.0 2.0 0.00 0.26 0.26 57 1020.9
20240529235356 61 325 0.0 2.0 0.00 0.26 0.26 58 1021.0
20240529234858 62 333 1.0 2.0 0.00 0.26 0.26 58 1021.0
20240529234358 62 360 1.0 2.0 0.00 0.26 0.26 58 1021.0
20240529233858 62 279 0.0 1.0 0.00 0.26 0.26 61 1021.0
20240529233359 62 360 0.0 2.0 0.00 0.26 0.26 58 1020.8
20240529232856 62 332 0.0 3.0 0.00 0.26 0.26 58 1020.8
20240529232355 62 360 1.0 3.0 0.00 0.26 0.26 58 1020.8
20240529231857 63 360 1.0 2.0 0.00 0.26 0.26 58 1020.8
20240529231359 63 9 0.0 3.0 0.00 0.26 0.26 60 1020.7
20240529230857 63 329 0.0 3.0 0.00 0.26 0.26 60 1020.7
20240529230358 63 285 0.0 3.0 0.00 0.26 0.26 61 1020.7
20240529225859 63 360 1.0 2.0 0.00 0.26 0.26 62 1020.7
20240529225358 63 360 0.0 2.0 0.00 0.26 0.26 63 1020.8
20240529224900 63 360 1.0 2.0 0.00 0.26 0.26 62 1020.7
20240529224359 64 306 1.0 3.0 0.00 0.26 0.26 62 1020.7
20240529223901 64 9 0.0 2.0 0.00 0.26 0.26 65 1020.6
20240529223400 64 9 0.0 3.0 0.00 0.26 0.26 65 1020.6
20240529222857 64 351 0.0 4.0 0.00 0.26 0.26 66 1020.7
20240529222418 64 40 1.0 4.0 0.00 0.26 0.26 65 1020.7
20240529221913 64 317 0.0 3.0 0.00 0.26 0.26 66 1020.6
20240529221432 64 360 1.0 3.0 0.00 0.26 0.26 65 1020.7
20240529220910 64 360 0.0 2.0 0.00 0.26 0.26 67 1020.6
20240529220409 63 360 0.0 3.0 0.00 0.26 0.26 67 1020.6
20240529215908 64 360 2.0 4.0 0.00 0.26 0.26 67 1020.5
20240529215406 63 360 1.0 4.0 0.00 0.26 0.26 68 1020.6
20240529214906 63 360 2.0 4.0 0.00 0.26 0.26 70 1020.4
20240529214405 63 360 1.0 3.0 0.00 0.26 0.26 71 1020.4
20240529213906 63 360 2.0 4.0 0.00 0.26 0.26 71 1020.5
20240529213404 63 360 1.0 4.0 0.00 0.26 0.26 72 1020.6
20240529212904 63 360 0.0 3.0 0.00 0.26 0.26 72 1020.6
20240529212423 63 360 1.0 4.0 0.00 0.26 0.26 72 1020.7
20240529211900 63 360 2.0 5.0 0.00 0.26 0.26 71 1020.8
20240529211359 63 360 2.0 5.0 0.00 0.26 0.26 71 1020.8
20240529210900 63 360 1.0 5.0 0.00 0.26 0.26 70 1020.8
20240529210418 64 360 2.0 5.0 0.00 0.26 0.26 71 1020.8
20240529205914 64 360 0.0 3.0 0.00 0.26 0.26 73 1020.8
20240529205415 64 360 1.0 3.0 0.00 0.26 0.26 72 1020.8
20240529204908 64 360 1.0 4.0 0.00 0.26 0.26 73 1020.8
20240529204432 64 360 2.0 4.0 0.00 0.26 0.26 72 1020.9
20240529203908 63 360 1.0 4.0 0.00 0.26 0.26 74 1020.9
20240529203408 63 360 2.0 4.0 0.00 0.26 0.26 72 1021.0
20240529202907 63 360 0.0 4.0 0.00 0.26 0.26 72 1021.0
20240529202407 63 360 1.0 4.0 0.00 0.26 0.26 73 1021.1
20240529201925 63 360 0.0 2.0 0.00 0.26 0.26 72 1021.1
20240529201404 63 360 0.0 3.0 0.00 0.26 0.26 73 1021.1
20240529200901 63 360 1.0 3.0 0.00 0.26 0.26 73 1021.1
20240529200402 63 360 2.0 3.0 0.00 0.26 0.26 72 1021.1
20240529195900 63 360 0.0 3.0 0.00 0.26 0.26 72 1021.1
20240529195359 63 360 1.0 3.0 0.00 0.26 0.26 74 1021.1
20240529194857 63 360 2.0 3.0 0.00 0.26 0.26 72 1021.1
20240529194354 64 360 1.0 4.0 0.00 0.26 0.26 72 1021.1
20240529193856 64 360 1.0 6.0 0.00 0.26 0.26 72 1021.2
20240529193354 64 360 2.0 6.0 0.00 0.26 0.26 71 1021.1
20240529192856 64 360 1.0 3.0 0.00 0.26 0.26 72 1021.1
20240529192355 64 360 2.0 3.0 0.00 0.26 0.26 73 1021.1
20240529191856 64 360 2.0 3.0 0.00 0.26 0.26 70 1021.1
20240529191358 64 360 2.0 4.0 0.00 0.26 0.26 69 1021.0
20240529190918 64 360 2.0 3.0 0.00 0.26 0.26 69 1021.1
20240529190356 64 360 2.0 4.0 0.00 0.26 0.26 71 1021.1
20240529185914 64 360 1.0 5.0 0.00 0.26 0.26 71 1021.1
20240529185415 64 360 2.0 5.0 0.00 0.26 0.26 71 1021.1
20240529184916 64 360 1.0 4.0 0.00 0.26 0.26 70 1021.1
20240529184356 64 360 2.0 4.0 0.00 0.26 0.26 69 1021.2
20240529183922 64 360 1.0 4.0 0.00 0.26 0.26 70 1021.2
20240529183401 63 360 0.0 5.0 0.00 0.26 0.26 70 1021.2
20240529182903 64 360 2.0 8.0 0.00 0.26 0.26 70 1021.2
20240529182402 64 360 2.0 8.0 0.00 0.26 0.26 71 1021.3
20240529181904 64 360 0.0 2.0 0.00 0.26 0.26 71 1021.2
20240529181402 63 360 0.0 4.0 0.00 0.26 0.26 70 1021.2
20240529180904 63 360 2.0 4.0 0.00 0.26 0.26 73 1021.2
20240529180406 63 360 1.0 6.0 0.00 0.26 0.26 74 1021.1
20240529175906 63 360 2.0 6.0 0.00 0.26 0.26 72 1021.1
20240529175408 63 325 1.0 4.0 0.00 0.26 0.26 73 1021.1
20240529174908 63 27 1.0 4.0 0.00 0.26 0.26 74 1021.2
20240529174408 63 258 2.0 4.0 0.00 0.26 0.26 73 1021.1
20240529173908 63 252 1.0 4.0 0.00 0.26 0.26 73 1021.2
20240529173408 63 360 2.0 4.0 0.00 0.26 0.26 73 1021.2
20240529172927 64 360 2.0 4.0 0.00 0.26 0.26 70 1021.2
20240529172425 64 360 2.0 4.0 0.00 0.26 0.26 73 1021.1
20240529171904 64 360 1.0 3.0 0.00 0.26 0.26 72 1021.1
20240529171403 64 360 1.0 3.0 0.00 0.26 0.26 70 1021.1
20240529170902 64 360 0.0 4.0 0.00 0.26 0.26 73 1021.1
20240529170404 64 360 2.0 4.0 0.00 0.26 0.26 72 1021.1
20240529165902 64 360 1.0 3.0 0.00 0.26 0.26 70 1021.0
20240529165400 65 360 0.0 4.0 0.00 0.26 0.26 71 1020.9
20240529164859 64 360 1.0 6.0 0.00 0.26 0.26 72 1020.8
20240529164357 64 360 1.0 6.0 0.00 0.26 0.26 72 1020.9
20240529163855 64 360 2.0 4.0 0.00 0.26 0.26 69 1020.9
20240529163355 64 360 1.0 4.0 0.00 0.26 0.26 73 1020.8
20240529162853 64 360 1.0 4.0 0.00 0.26 0.26 73 1020.9
20240529162352 63 360 1.0 3.0 0.00 0.26 0.26 74 1020.9
20240529161911 63 286 1.0 3.0 0.00 0.26 0.26 73 1020.9
20240529161408 63 246 0.0 2.0 0.00 0.26 0.26 77 1021.0
20240529160906 63 244 0.0 2.0 0.00 0.26 0.26 74 1020.9
20240529160404 63 275 1.0 3.0 0.00 0.26 0.26 75 1020.9
20240529155921 62 13 0.0 3.0 0.00 0.26 0.26 76 1020.9
20240529155400 62 360 0.0 3.0 0.00 0.26 0.26 76 1020.9
20240529154919 62 360 0.0 2.0 0.00 0.26 0.26 78 1020.9
20240529154415 62 360 0.0 3.0 0.00 0.26 0.26 78 1020.9
20240529153854 62 360 1.0 3.0 0.00 0.26 0.26 78 1020.8
20240529153351 62 360 0.0 2.0 0.00 0.26 0.26 80 1020.7
20240529152909 62 40 1.0 3.0 0.00 0.26 0.26 79 1020.7
20240529152410 61 14 0.0 3.0 0.00 0.26 0.26 79 1020.7
20240529151926 61 360 1.0 3.0 0.00 0.26 0.26 78 1020.7
20240529151404 61 325 0.0 3.0 0.00 0.26 0.26 76 1020.6
20240529150901 61 350 0.0 3.0 0.00 0.26 0.26 81 1020.6
20240529150359 61 259 1.0 3.0 0.00 0.26 0.26 81 1020.6
20240529145856 61 313 0.0 2.0 0.00 0.26 0.26 80 1020.5
20240529145354 61 360 0.0 2.0 0.00 0.26 0.26 82 1020.4
20240529144853 60 360 0.0 0.0 0.00 0.26 0.26 83 1020.5
20240529144411 60 360 0.0 1.0 0.00 0.26 0.26 82 1020.5
20240529143908 60 360 0.0 1.0 0.00 0.26 0.26 83 1020.4
20240529143408 60 360 0.0 0.0 0.00 0.26 0.26 83 1020.4
20240529142907 60 360 0.0 0.0 0.00 0.26 0.26 83 1020.3
20240529142406 60 360 0.0 2.0 0.00 0.26 0.26 83 1020.3
20240529141924 60 360 0.0 2.0 0.00 0.26 0.26 83 1020.2
20240529141403 60 360 0.0 1.0 0.00 0.26 0.26 84 1020.2
20240529140901 59 360 0.0 0.0 0.00 0.26 0.26 83 1020.2
20240529140358 59 360 0.0 0.0 0.00 0.26 0.26 84 1020.1
20240529135859 59 360 0.0 0.0 0.00 0.26 0.26 84 1020.1
20240529135359 60 360 0.0 0.0 0.00 0.26 0.26 83 1020.1
20240529134919 60 355 0.0 2.0 0.00 0.26 0.26 84 1020.1
20240529134358 60 304 0.0 2.0 0.00 0.26 0.26 84 1020.2
20240529133916 60 339 0.0 0.0 0.00 0.26 0.26 85 1020.0
20240529133354 60 336 0.0 2.0 0.00 0.26 0.26 85 1019.9
20240529132851 60 16 0.0 1.0 0.00 0.26 0.26 86 1019.9
20240529132410 60 58 0.0 1.0 0.00 0.26 0.26 87 1019.6
20240529131852 59 292 0.0 2.0 0.00 0.26 0.26 86 1019.6
20240529131418 59 360 0.0 2.0 0.00 0.26 0.26 87 1019.5
20240529130927 59 360 0.0 2.0 0.00 0.26 0.26 86 1019.5
20240529130406 59 329 1.0 2.0 0.00 0.26 0.26 87 1019.5
20240529125931 59 301 0.0 2.0 0.00 0.26 0.26 88 1019.4
20240529125429 59 259 1.0 3.0 0.00 0.26 0.26 87 1019.3
20240529124906 59 329 1.0 3.0 0.00 0.26 0.26 88 1019.1
20240529124408 59 336 0.0 2.0 0.00 0.26 0.26 87 1019.1
20240529123907 58 360 0.0 3.0 0.00 0.26 0.26 88 1019.0
20240529123405 58 360 0.0 2.0 0.00 0.26 0.26 90 1018.9
20240529122903 57 360 1.0 2.0 0.00 0.26 0.26 90 1018.8
20240529122403 57 360 0.0 2.0 0.00 0.26 0.26 92 1018.8
20240529121901 56 317 1.0 2.0 0.00 0.26 0.26 92 1018.9
20240529121357 56 53 0.0 2.0 0.00 0.26 0.26 93 1018.7
20240529120916 56 360 0.0 1.0 0.00 0.26 0.26 94 1018.6
20240529120354 55 360 0.0 1.0 0.00 0.36 0.26 94 1018.4
20240529115913 55 360 0.0 0.0 0.00 0.36 0.26 94 1018.4
20240529115412 55 360 0.0 2.0 0.00 0.36 0.26 94 1018.3
20240529114912 55 360 0.0 2.0 0.00 0.36 0.26 94 1018.3
20240529114410 55 360 0.0 1.0 0.00 0.36 0.26 94 1018.3
20240529113909 55 360 0.0 1.0 0.00 0.36 0.26 94 1018.2
20240529113407 55 360 0.0 2.0 0.00 0.36 0.26 95 1018.1
20240529112905 55 360 0.0 2.0 0.00 0.36 0.26 95 1018.0
20240529112405 55 360 0.0 0.0 0.00 0.36 0.26 95 1018.0
20240529111904 55 360 0.0 0.0 0.00 0.36 0.26 95 1017.9
20240529111422 55 360 0.0 0.0 0.00 0.36 0.26 95 1017.8
20240529110901 55 360 0.0 1.0 0.00 0.36 0.26 95 1017.7
20240529110402 55 360 0.0 0.0 0.00 0.40 0.26 95 1017.6
20240529105922 55 360 0.0 0.0 0.00 0.40 0.26 95 1017.5
20240529105407 55 360 0.0 0.0 0.00 0.40 0.26 95 1017.5
20240529104926 55 360 0.0 0.0 0.00 0.40 0.26 95 1017.3
20240529104402 55 360 0.0 1.0 0.00 0.40 0.26 95 1017.2
20240529103901 55 360 0.0 2.0 0.00 0.40 0.26 95 1017.1
20240529103400 55 360 0.0 2.0 0.00 0.40 0.26 95 1017.1
20240529102859 55 360 0.0 2.0 0.00 0.40 0.26 95 1017.1
20240529102359 55 360 0.0 2.0 0.00 0.40 0.26 95 1017.0
20240529101858 55 360 0.0 2.0 0.00 0.40 0.26 95 1017.0
20240529101358 55 360 0.0 2.0 0.01 0.40 0.26 95 1016.9
20240529100856 55 360 0.0 1.0 0.01 0.40 0.26 95 1016.8
20240529100409 55 360 0.0 1.0 0.01 0.43 0.26 94 1016.8
20240529095903 55 360 0.0 3.0 0.01 0.43 0.26 94 1016.7
20240529095417 55 360 1.0 3.0 0.01 0.43 0.26 94 1016.7
20240529094914 55 360 0.0 3.0 0.02 0.43 0.26 94 1016.7
20240529094409 55 360 1.0 2.0 0.02 0.43 0.26 94 1016.7
20240529093904 55 360 1.0 2.0 0.02 0.43 0.26 94 1016.6
20240529093359 55 360 0.0 2.0 0.03 0.43 0.26 94 1016.6
20240529092913 55 360 0.0 2.0 0.03 0.43 0.26 94 1016.4
20240529092428 55 360 1.0 2.0 0.04 0.43 0.26 94 1016.4
20240529091904 55 360 0.0 2.0 0.05 0.43 0.26 94 1016.4
20240529091359 55 360 1.0 2.0 0.04 0.42 0.25 93 1016.3
20240529090855 55 360 0.0 0.0 0.05 0.42 0.25 93 1016.3
20240529090410 55 360 0.0 1.0 0.05 0.42 0.25 93 1016.4
20240529085906 55 360 0.0 3.0 0.06 0.42 0.25 93 1016.3
20240529085402 55 360 1.0 3.0 0.06 0.42 0.25 93 1016.3
20240529084858 55 360 0.0 2.0 0.06 0.41 0.24 93 1016.3
20240529084355 55 360 0.0 3.0 0.07 0.41 0.24 93 1016.3
20240529083910 55 360 1.0 3.0 0.09 0.41 0.24 93 1016.2
20240529083405 55 360 0.0 2.0 0.10 0.40 0.23 93 1016.2
20240529082858 55 360 1.0 2.0 0.12 0.40 0.23 93 1016.2
20240529082354 56 360 1.0 2.0 0.13 0.39 0.22 93 1016.1
20240529081907 56 360 0.0 2.0 0.14 0.38 0.21 93 1016.1
20240529081403 56 360 0.0 2.0 0.16 0.38 0.21 93 1016.1
20240529080917 56 360 0.0 2.0 0.17 0.37 0.20 93 1015.9
20240529080352 56 360 0.0 1.0 0.18 0.37 0.20 93 1015.9
20240529075904 56 360 0.0 1.0 0.17 0.36 0.19 93 1015.9
20240529075359 56 360 0.0 2.0 0.17 0.35 0.18 93 1015.8
20240529074410 56 360 0.0 1.0 0.17 0.34 0.17 92 1015.8
20240529073906 56 360 0.0 2.0 0.15 0.32 0.15 92 1015.8
20240529073401 56 360 0.0 2.0 0.13 0.30 0.13 92 1015.8
20240529072900 56 360 0.0 2.0 0.10 0.27 0.10 92 1015.8
20240529072357 56 360 0.0 3.0 0.09 0.26 0.09 92 1015.8
20240529071915 56 360 1.0 3.0 0.07 0.24 0.07 92 1015.7
20240529071411 56 360 0.0 0.0 0.05 0.22 0.05 91 1015.6
20240529070909 57 360 0.0 2.0 0.03 0.20 0.03 91 1015.6
20240529070407 57 360 0.0 2.0 0.02 0.19 0.02 91 1015.6
20240529065905 57 360 0.0 0.0 0.01 0.18 0.01 91 1015.5
20240529065402 57 360 0.0 1.0 0.01 0.18 0.01 91 1015.5
20240529064858 57 360 0.0 2.0 0.00 0.17 0.00 91 1015.6
20240529064354 57 360 0.0 2.0 0.00 0.17 0.00 90 1015.5
20240529063853 57 360 0.0 2.0 0.00 0.17 0.00 90 1015.5
20240529063411 57 360 0.0 2.0 0.00 0.17 0.00 90 1015.4
20240529062908 57 360 0.0 2.0 0.00 0.17 0.00 90 1015.3
20240529062405 57 360 0.0 2.0 0.00 0.17 0.00 89 1015.2
20240529061900 57 360 1.0 2.0 0.00 0.17 0.00 89 1015.3
20240529061417 57 360 1.0 3.0 0.00 0.17 0.00 89 1015.1
20240529060855 57 360 0.0 2.0 0.00 0.17 0.00 88 1015.2
20240529060414 57 360 0.0 0.0 0.00 0.17 0.00 88 1015.2
20240529055931 57 360 0.0 1.0 0.00 0.17 0.00 88 1015.2
20240529055406 57 360 0.0 2.0 0.00 0.17 0.00 88 1015.2
20240529054924 57 360 0.0 1.0 0.00 0.17 0.00 88 1015.2
20240529054400 57 360 0.0 2.0 0.00 0.17 0.00 88 1015.3
20240529053917 57 360 0.0 2.0 0.00 0.17 0.00 88 1015.3
20240529053355 57 360 1.0 2.0 0.00 0.17 0.00 88 1015.3
20240529052855 57 360 0.0 1.0 0.00 0.17 0.00 88 1015.3
20240529052352 57 360 0.0 1.0 0.00 0.17 0.00 87 1015.2
20240529051910 57 360 0.0 1.0 0.00 0.17 0.00 87 1015.2
20240529051409 57 360 0.0 1.0 0.00 0.17 0.00 87 1015.2
20240529050907 57 360 0.0 0.0 0.00 0.17 0.00 87 1015.2
20240529050425 57 360 0.0 1.0 0.00 0.17 0.00 87 1015.2
20240529045918 57 360 0.0 3.0 0.00 0.17 0.00 86 1015.3
20240529045354 58 360 1.0 3.0 0.00 0.17 0.00 86 1015.3
20240529044912 57 360 0.0 0.0 0.00 0.17 0.00 86 1015.3
20240529044429 58 360 0.0 0.0 0.00 0.17 0.00 86 1015.4
20240529043904 58 360 0.0 0.0 0.00 0.17 0.00 86 1015.4
20240529043400 58 360 0.0 1.0 0.00 0.17 0.00 86 1015.5
20240529042857 58 360 0.0 1.0 0.00 0.17 0.00 86 1015.5
20240529042353 58 360 0.0 1.0 0.00 0.17 0.00 85 1015.4
20240529041909 58 360 0.0 0.0 0.00 0.17 0.00 85 1015.4
20240529041405 58 360 0.0 0.0 0.00 0.17 0.00 85 1015.4
20240529040902 58 360 0.0 0.0 0.00 0.17 0.00 85 1015.3
20240529040419 58 360 0.0 0.0 0.00 0.17 0.17 85 1015.4
20240529035906 58 360 0.0 0.0 0.00 0.17 0.17 85 1015.3
20240529035404 58 360 0.0 0.0 0.00 0.17 0.17 85 1015.2
20240529035041 58 360 0.0 1.0 0.00 0.17 0.17 85 1015.0
20240529034640 58 360 0.0 1.0 0.00 0.17 0.17 84 1014.9
20240529033638 58 360 0.0 0.0 0.00 0.17 0.17 84 1014.7
20240529032128 58 360 0.0 0.0 0.00 0.17 0.17 84 1014.6
20240529030312 59 360 0.0 1.0 0.00 0.17 0.17 83 1014.8
20240529024957 60 360 1.0 3.0 0.00 0.17 0.17 81 1014.8
20240529023744 60 360 0.0 3.0 0.00 0.17 0.17 80 1014.9